Date,TemperatureHighF,TemperatureAvgF,TemperatureLowF,DewpointHighF,DewpointAvgF,DewpointLowF,HumidityHigh,HumidityAvg,HumidityLow,PressureMaxIn,PressureMinIn,WindSpeedMaxMPH,WindSpeedAvgMPH,GustSpeedMaxMPH,PrecipitationSumIn
2013-11-3,81,67,56,52,36,23,70,34,16,29.97,29.88,8,2,10,0.00
2013-11-4,81,69,59,59,46,38,80,47,24,30.03,29.94,10,2,10,0.00
2013-11-5,86,72,63,67,57,46,93,66,27,30.00,29.91,14,3,14,0.00
2013-11-6,88,71,64,70,59,49,96,71,29,29.97,29.85,10,1,10,0.00
2013-11-7,87,71,63,69,62,51,96,76,34,29.91,29.79,4,1,6,0.00
2013-11-8,82,66,57,65,49,36,95,57,27,30.00,29.82,8,2,10,0.00
2013-11-9,84,68,54,59,50,44,95,59,29,30.03,29.94,12,3,13,0.00
2013-11-10,76,64,61,65,59,54,95,84,48,30.03,29.94,5,1,5,0.00
2013-11-11,76,68,63,57,54,46,79,62,34,29.94,29.88,3,0,5,0.00
2013-11-12,89,70,61,68,55,47,96,63,30,29.94,29.82,4,1,5,0.00
2013-11-13,68,58,49,48,35,30,61,44,28,30.15,29.91,11,3,12,0.00
2013-11-14,49,47,46,38,36,35,74,67,61,30.15,30.09,3,1,3,0.00
2013-11-16,76,70,64,68,65,61,96,86,61,29.97,29.88,1,0,1,0.00
2013-11-17,90,74,68,70,65,53,96,77,32,29.91,29.82,4,0,6,0.41
2013-11-18,83,73,66,74,64,53,96,76,40,29.85,29.74,4,0,4,0.00
2013-11-19,77,69,61,68,54,38,96,65,29,29.82,29.74,6,2,7,0.00
2013-11-20,78,68,60,66,60,54,87,76,54,29.94,29.79,7,1,8,0.00
2013-11-21,82,72,67,68,63,55,95,77,44,30.03,29.94,13,2,13,0.00
2013-11-22,86,72,64,70,61,51,94,72,36,30.03,29.94,10,2,12,0.00
2013-11-23,90,71,62,70,56,44,97,67,24,29.97,29.82,3,1,3,0.00
2013-11-24,69,62,56,62,46,35,86,56,35,30.09,29.85,5,2,5,0.00
2013-11-25,74,66,57,51,43,39,61,45,30,30.09,29.91,13,3,16,0.00
2013-11-26,66,65,65,57,54,51,74,67,62,29.94,29.82,6,4,7,0.00
2013-11-28,66,57,49,41,35,29,71,47,27,30.18,30.06,8,2,11,0.00
2013-11-29,75,58,47,53,43,37,94,61,32,30.21,30.12,7,1,8,0.00
2013-11-30,79,59,52,56,50,43,89,73,32,30.15,30.09,7,1,8,0.00